owner,sensor,date,latitude,longitude,vertical_datum,sea_water_temperature,qcFlag 
TABS,ioos:station:wmo:42045:1,2007-12-06T00:00:00Z,26.2168,-96.4998,-2.0,19.59,11111222 
TABS,ioos:station:wmo:42045:1,2007-12-06T00:30:00Z,26.2168,-96.4998,-2.0,19.42,11111222 
TABS,ioos:station:wmo:42045:1,2007-12-06T01:00:00Z,26.2168,-96.4998,-2.0,19.27,11111222 
TABS,ioos:station:wmo:42045:1,2007-12-06T01:30:00Z,26.2168,-96.4998,-2.0,19.22,11111222 
TABS,ioos:station:wmo:42045:1,2007-12-06T02:00:00Z,26.2168,-96.4998,-2.0,19.21,11111222 
TABS,ioos:station:wmo:42045:1,2007-12-06T02:30:00Z,26.2168,-96.4998,-2.0,19.31,11111222 
TABS,ioos:station:wmo:42045:1,2007-12-06T03:00:00Z,26.2168,-96.4998,-2.0,19.47,11111222 
TABS,ioos:station:wmo:42045:1,2007-12-06T03:30:00Z,26.2168,-96.4998,-2.0,19.7,11111222 
TABS,ioos:station:wmo:42045:1,2007-12-06T04:00:00Z,26.2168,-96.4998,-2.0,19.89,11111222 
TABS,ioos:station:wmo:42045:1,2007-12-06T04:30:00Z,26.2168,-96.4998,-2.0,20.02,11111222 
TABS,ioos:station:wmo:42045:1,2007-12-06T05:00:00Z,26.2168,-96.4998,-2.0,20.13,11111222 
TABS,ioos:station:wmo:42045:1,2007-12-06T05:30:00Z,26.2168,-96.4998,-2.0,20.41,11111222 
TABS,ioos:station:wmo:42045:1,2007-12-06T06:00:00Z,26.2168,-96.4998,-2.0,20.53,11111222 
TABS,ioos:station:wmo:42045:1,2007-12-06T06:30:00Z,26.2168,-96.4998,-2.0,20.56,11111222 
TABS,ioos:station:wmo:42045:1,2007-12-06T07:00:00Z,26.2168,-96.4998,-2.0,20.66,11111222 
TABS,ioos:station:wmo:42045:1,2007-12-06T07:30:00Z,26.2168,-96.4998,-2.0,20.7,11111222 
TABS,ioos:station:wmo:42045:1,2007-12-06T08:00:00Z,26.2168,-96.4998,-2.0,20.9,11111222 
TABS,ioos:station:wmo:42045:1,2007-12-06T08:30:00Z,26.2168,-96.4998,-2.0,20.99,11111222 
TABS,ioos:station:wmo:42045:1,2007-12-06T09:00:00Z,26.2168,-96.4998,-2.0,20.79,11111222 
TABS,ioos:station:wmo:42045:1,2007-12-06T09:30:00Z,26.2168,-96.4998,-2.0,20.31,11111222 
TABS,ioos:station:wmo:42045:1,2007-12-06T10:00:00Z,26.2168,-96.4998,-2.0,20.06,11111222 
TABS,ioos:station:wmo:42045:1,2007-12-06T10:30:00Z,26.2168,-96.4998,-2.0,19.97,11111222 
TABS,ioos:station:wmo:42045:1,2007-12-06T11:00:00Z,26.2168,-96.4998,-2.0,20.05,11111222 
TABS,ioos:station:wmo:42045:1,2007-12-06T11:30:00Z,26.2168,-96.4998,-2.0,20.01,11111222 
TABS,ioos:station:wmo:42045:1,2007-12-06T12:00:00Z,26.2168,-96.4998,-2.0,19.98,11111222 
TABS,ioos:station:wmo:42045:1,2007-12-06T12:30:00Z,26.2168,-96.4998,-2.0,19.99,11111222 
TABS,ioos:station:wmo:42045:1,2007-12-06T13:00:00Z,26.2168,-96.4998,-2.0,19.98,11111222 
TABS,ioos:station:wmo:42045:1,2007-12-06T13:30:00Z,26.2168,-96.4998,-2.0,20.01,11111222 
TABS,ioos:station:wmo:42045:1,2007-12-06T14:00:00Z,26.2168,-96.4998,-2.0,20.04,11111222 
TABS,ioos:station:wmo:42045:1,2007-12-06T14:30:00Z,26.2168,-96.4998,-2.0,20.06,11111222 
TABS,ioos:station:wmo:42045:1,2007-12-06T15:00:00Z,26.2168,-96.4998,-2.0,20.07,11111222 
TABS,ioos:station:wmo:42045:1,2007-12-06T15:30:00Z,26.2168,-96.4998,-2.0,20.1,11111222 
TABS,ioos:station:wmo:42045:1,2007-12-06T16:00:00Z,26.2168,-96.4998,-2.0,20.14,11111222 
TABS,ioos:station:wmo:42045:1,2007-12-06T16:30:00Z,26.2168,-96.4998,-2.0,20.19,11111222 
TABS,ioos:station:wmo:42045:1,2007-12-06T17:00:00Z,26.2168,-96.4998,-2.0,20.23,11111222 
TABS,ioos:station:wmo:42045:1,2007-12-06T17:30:00Z,26.2168,-96.4998,-2.0,20.27,11111222 
TABS,ioos:station:wmo:42045:1,2007-12-06T18:00:00Z,26.2168,-96.4998,-2.0,20.34,11111222 
TABS,ioos:station:wmo:42045:1,2007-12-06T18:30:00Z,26.2168,-96.4998,-2.0,20.4,11111222 
TABS,ioos:station:wmo:42045:1,2007-12-06T19:00:00Z,26.2168,-96.4998,-2.0,20.42,11111222 
TABS,ioos:station:wmo:42045:1,2007-12-06T19:30:00Z,26.2168,-96.4998,-2.0,20.43,11111222 
TABS,ioos:station:wmo:42045:1,2007-12-06T20:00:00Z,26.2168,-96.4998,-2.0,20.45,11111222 
TABS,ioos:station:wmo:42045:1,2007-12-06T20:30:00Z,26.2168,-96.4998,-2.0,20.44,11111222 
TABS,ioos:station:wmo:42045:1,2007-12-06T21:00:00Z,26.2168,-96.4998,-2.0,20.4,11111222 
TABS,ioos:station:wmo:42045:1,2007-12-06T21:30:00Z,26.2168,-96.4998,-2.0,20.36,11111222 
TABS,ioos:station:wmo:42045:1,2007-12-06T22:00:00Z,26.2168,-96.4998,-2.0,20.36,11111222 
TABS,ioos:station:wmo:42045:1,2007-12-06T22:30:00Z,26.2168,-96.4998,-2.0,20.43,11111222 
TABS,ioos:station:wmo:42045:1,2007-12-06T23:00:00Z,26.2168,-96.4998,-2.0,20.46,11111222 
TABS,ioos:station:wmo:42045:1,2007-12-06T23:30:00Z,26.2168,-96.4998,-2.0,20.42,11111222 
TABS,ioos:station:wmo:42045:1,2007-12-07T00:00:00Z,26.2168,-96.4998,-2.0,20.38,11111222 
TABS,ioos:station:wmo:42045:1,2007-12-07T00:30:00Z,26.2168,-96.4998,-2.0,20.35,11111222 
TABS,ioos:station:wmo:42045:1,2007-12-07T01:00:00Z,26.2168,-96.4998,-2.0,20.32,11111222 
TABS,ioos:station:wmo:42045:1,2007-12-07T01:30:00Z,26.2168,-96.4998,-2.0,20.31,11111222 
TABS,ioos:station:wmo:42045:1,2007-12-07T02:00:00Z,26.2168,-96.4998,-2.0,20.28,11111222 
TABS,ioos:station:wmo:42045:1,2007-12-07T02:30:00Z,26.2168,-96.4998,-2.0,20.28,11111222 
TABS,ioos:station:wmo:42045:1,2007-12-07T03:00:00Z,26.2168,-96.4998,-2.0,20.25,11111222 
TABS,ioos:station:wmo:42045:1,2007-12-07T03:30:00Z,26.2168,-96.4998,-2.0,20.24,11111222 
TABS,ioos:station:wmo:42045:1,2007-12-07T04:00:00Z,26.2168,-96.4998,-2.0,20.22,11111222 
TABS,ioos:station:wmo:42045:1,2007-12-07T04:30:00Z,26.2168,-96.4998,-2.0,20.23,11111222 
TABS,ioos:station:wmo:42045:1,2007-12-07T05:00:00Z,26.2168,-96.4998,-2.0,20.21,11111222 
TABS,ioos:station:wmo:42045:1,2007-12-07T05:30:00Z,26.2168,-96.4998,-2.0,20.19,11111222 
TABS,ioos:station:wmo:42045:1,2007-12-07T06:00:00Z,26.2168,-96.4998,-2.0,20.19,11111222 
TABS,ioos:station:wmo:42045:1,2007-12-07T06:30:00Z,26.2168,-96.4998,-2.0,20.18,11111222 
TABS,ioos:station:wmo:42045:1,2007-12-07T07:00:00Z,26.2168,-96.4998,-2.0,20.15,11111222 
TABS,ioos:station:wmo:42045:1,2007-12-07T07:30:00Z,26.2168,-96.4998,-2.0,20.15,11111222 
TABS,ioos:station:wmo:42045:1,2007-12-07T08:00:00Z,26.2168,-96.4998,-2.0,20.14,11111222 
TABS,ioos:station:wmo:42045:1,2007-12-07T08:30:00Z,26.2168,-96.4998,-2.0,20.15,11111222 
TABS,ioos:station:wmo:42045:1,2007-12-07T09:00:00Z,26.2168,-96.4998,-2.0,20.18,11111222 
TABS,ioos:station:wmo:42045:1,2007-12-07T09:30:00Z,26.2168,-96.4998,-2.0,20.19,11111222 
TABS,ioos:station:wmo:42045:1,2007-12-07T10:00:00Z,26.2168,-96.4998,-2.0,20.2,11111222 
TABS,ioos:station:wmo:42045:1,2007-12-07T10:30:00Z,26.2168,-96.4998,-2.0,20.22,11111222 
TABS,ioos:station:wmo:42045:1,2007-12-07T11:00:00Z,26.2168,-96.4998,-2.0,20.23,11111222 
TABS,ioos:station:wmo:42045:1,2007-12-07T11:30:00Z,26.2168,-96.4998,-2.0,20.24,11111222 
TABS,ioos:station:wmo:42045:1,2007-12-07T12:00:00Z,26.2168,-96.4998,-2.0,20.24,11111222 
TABS,ioos:station:wmo:42045:1,2007-12-07T12:30:00Z,26.2168,-96.4998,-2.0,20.23,11111222 
TABS,ioos:station:wmo:42045:1,2007-12-07T13:00:00Z,26.2168,-96.4998,-2.0,20.24,11111222 
TABS,ioos:station:wmo:42045:1,2007-12-07T13:30:00Z,26.2168,-96.4998,-2.0,20.25,11111222 
TABS,ioos:station:wmo:42045:1,2007-12-07T14:00:00Z,26.2168,-96.4998,-2.0,20.26,11111222 
TABS,ioos:station:wmo:42045:1,2007-12-07T14:30:00Z,26.2168,-96.4998,-2.0,20.26,11111222 
TABS,ioos:station:wmo:42045:1,2007-12-07T15:00:00Z,26.2168,-96.4998,-2.0,20.25,11111222 
TABS,ioos:station:wmo:42045:1,2007-12-07T15:30:00Z,26.2168,-96.4998,-2.0,20.27,11111222 
TABS,ioos:station:wmo:42045:1,2007-12-07T16:00:00Z,26.2168,-96.4998,-2.0,20.29,11111222 
TABS,ioos:station:wmo:42045:1,2007-12-07T16:30:00Z,26.2168,-96.4998,-2.0,20.32,11111222 
TABS,ioos:station:wmo:42045:1,2007-12-07T17:00:00Z,26.2168,-96.4998,-2.0,20.35,11111222 
TABS,ioos:station:wmo:42045:1,2007-12-07T17:30:00Z,26.2168,-96.4998,-2.0,20.38,11111222 
TABS,ioos:station:wmo:42045:1,2007-12-07T18:00:00Z,26.2168,-96.4998,-2.0,20.42,11111222 
TABS,ioos:station:wmo:42045:1,2007-12-07T18:30:00Z,26.2168,-96.4998,-2.0,20.47,11111222 
TABS,ioos:station:wmo:42045:1,2007-12-07T19:00:00Z,26.2168,-96.4998,-2.0,20.5,11111222 
TABS,ioos:station:wmo:42045:1,2007-12-07T19:30:00Z,26.2168,-96.4998,-2.0,20.5,11111222 
TABS,ioos:station:wmo:42045:1,2007-12-07T20:00:00Z,26.2168,-96.4998,-2.0,20.54,11111222 
TABS,ioos:station:wmo:42045:1,2007-12-07T20:30:00Z,26.2168,-96.4998,-2.0,20.55,11111222 
TABS,ioos:station:wmo:42045:1,2007-12-07T21:00:00Z,26.2168,-96.4998,-2.0,20.58,11111222 
TABS,ioos:station:wmo:42045:1,2007-12-07T21:30:00Z,26.2168,-96.4998,-2.0,20.55,11111222 
TABS,ioos:station:wmo:42045:1,2007-12-07T22:00:00Z,26.2168,-96.4998,-2.0,20.54,11111222 
TABS,ioos:station:wmo:42045:1,2007-12-07T22:30:00Z,26.2168,-96.4998,-2.0,20.48,11111222 
TABS,ioos:station:wmo:42045:1,2007-12-07T23:00:00Z,26.2168,-96.4998,-2.0,20.46,11111222 
TABS,ioos:station:wmo:42045:1,2007-12-07T23:30:00Z,26.2168,-96.4998,-2.0,20.44,11111222 
TABS,ioos:station:wmo:42045:1,2007-12-08T00:00:00Z,26.2168,-96.4998,-2.0,20.42,11111222 
TABS,ioos:station:wmo:42045:1,2007-12-08T00:30:00Z,26.2168,-96.4998,-2.0,20.41,11111222 
TABS,ioos:station:wmo:42045:1,2007-12-08T01:00:00Z,26.2168,-96.4998,-2.0,20.41,11111222 
TABS,ioos:station:wmo:42045:1,2007-12-08T01:30:00Z,26.2168,-96.4998,-2.0,20.4,11111222 
TABS,ioos:station:wmo:42045:1,2007-12-08T02:00:00Z,26.2168,-96.4998,-2.0,20.41,11111222 
TABS,ioos:station:wmo:42045:1,2007-12-08T02:30:00Z,26.2168,-96.4998,-2.0,20.4,11111222 
TABS,ioos:station:wmo:42045:1,2007-12-08T03:00:00Z,26.2168,-96.4998,-2.0,20.39,11111222 
TABS,ioos:station:wmo:42045:1,2007-12-08T03:30:00Z,26.2168,-96.4998,-2.0,20.38,11111222 
TABS,ioos:station:wmo:42045:1,2007-12-08T04:00:00Z,26.2168,-96.4998,-2.0,20.38,11111222 
TABS,ioos:station:wmo:42045:1,2007-12-08T04:30:00Z,26.2168,-96.4998,-2.0,20.37,11111222 
TABS,ioos:station:wmo:42045:1,2007-12-08T05:00:00Z,26.2168,-96.4998,-2.0,20.36,11111222 
TABS,ioos:station:wmo:42045:1,2007-12-08T05:30:00Z,26.2168,-96.4998,-2.0,20.36,11111222 
TABS,ioos:station:wmo:42045:1,2007-12-08T06:00:00Z,26.2168,-96.4998,-2.0,20.36,11111222 
TABS,ioos:station:wmo:42045:1,2007-12-08T06:30:00Z,26.2168,-96.4998,-2.0,20.36,11111222 
TABS,ioos:station:wmo:42045:1,2007-12-08T07:00:00Z,26.2168,-96.4998,-2.0,20.36,11111222 
TABS,ioos:station:wmo:42045:1,2007-12-08T07:30:00Z,26.2168,-96.4998,-2.0,20.36,11111222 
TABS,ioos:station:wmo:42045:1,2007-12-08T08:00:00Z,26.2168,-96.4998,-2.0,20.36,11111222 
TABS,ioos:station:wmo:42045:1,2007-12-08T08:30:00Z,26.2168,-96.4998,-2.0,20.36,11111222 
TABS,ioos:station:wmo:42045:1,2007-12-08T09:00:00Z,26.2168,-96.4998,-2.0,20.36,11111222 
TABS,ioos:station:wmo:42045:1,2007-12-08T09:30:00Z,26.2168,-96.4998,-2.0,20.37,11111222 
TABS,ioos:station:wmo:42045:1,2007-12-08T10:00:00Z,26.2168,-96.4998,-2.0,20.37,11111222 
TABS,ioos:station:wmo:42045:1,2007-12-08T10:30:00Z,26.2168,-96.4998,-2.0,20.38,11111222 
TABS,ioos:station:wmo:42045:1,2007-12-08T11:00:00Z,26.2168,-96.4998,-2.0,20.38,11111222 
TABS,ioos:station:wmo:42045:1,2007-12-08T11:30:00Z,26.2168,-96.4998,-2.0,20.4,11111222 
TABS,ioos:station:wmo:42045:1,2007-12-08T12:00:00Z,26.2168,-96.4998,-2.0,20.4,11111222 
TABS,ioos:station:wmo:42045:1,2007-12-08T12:30:00Z,26.2168,-96.4998,-2.0,20.42,11111222 
TABS,ioos:station:wmo:42045:1,2007-12-08T13:00:00Z,26.2168,-96.4998,-2.0,20.44,11111222 
TABS,ioos:station:wmo:42045:1,2007-12-08T13:30:00Z,26.2168,-96.4998,-2.0,20.45,11111222 
TABS,ioos:station:wmo:42045:1,2007-12-08T14:00:00Z,26.2168,-96.4998,-2.0,20.45,11111222 
TABS,ioos:station:wmo:42045:1,2007-12-08T14:30:00Z,26.2168,-96.4998,-2.0,20.46,11111222 
TABS,ioos:station:wmo:42045:1,2007-12-08T15:00:00Z,26.2168,-96.4998,-2.0,20.48,11111222 
TABS,ioos:station:wmo:42045:1,2007-12-08T15:30:00Z,26.2168,-96.4998,-2.0,20.5,11111222 
TABS,ioos:station:wmo:42045:1,2007-12-08T16:00:00Z,26.2168,-96.4998,-2.0,20.53,11111222 
TABS,ioos:station:wmo:42045:1,2007-12-08T16:30:00Z,26.2168,-96.4998,-2.0,20.55,11111222 
TABS,ioos:station:wmo:42045:1,2007-12-08T17:00:00Z,26.2168,-96.4998,-2.0,20.56,11111222 
TABS,ioos:station:wmo:42045:1,2007-12-08T17:30:00Z,26.2168,-96.4998,-2.0,20.6,11111222 
TABS,ioos:station:wmo:42045:1,2007-12-08T18:00:00Z,26.2168,-96.4998,-2.0,20.61,11111222 
TABS,ioos:station:wmo:42045:1,2007-12-08T18:30:00Z,26.2168,-96.4998,-2.0,20.65,11111222 
TABS,ioos:station:wmo:42045:1,2007-12-08T19:00:00Z,26.2168,-96.4998,-2.0,20.68,11111222 
TABS,ioos:station:wmo:42045:1,2007-12-08T19:30:00Z,26.2168,-96.4998,-2.0,20.71,11111222 
TABS,ioos:station:wmo:42045:1,2007-12-08T20:00:00Z,26.2168,-96.4998,-2.0,20.74,11111222 
TABS,ioos:station:wmo:42045:1,2007-12-08T20:30:00Z,26.2168,-96.4998,-2.0,20.75,11111222 
TABS,ioos:station:wmo:42045:1,2007-12-08T21:00:00Z,26.2168,-96.4998,-2.0,20.77,11111222 
TABS,ioos:station:wmo:42045:1,2007-12-08T21:30:00Z,26.2168,-96.4998,-2.0,20.78,11111222 
TABS,ioos:station:wmo:42045:1,2007-12-08T22:00:00Z,26.2168,-96.4998,-2.0,20.8,11111222 
TABS,ioos:station:wmo:42045:1,2007-12-08T22:30:00Z,26.2168,-96.4998,-2.0,20.8,11111222 
TABS,ioos:station:wmo:42045:1,2007-12-08T23:00:00Z,26.2168,-96.4998,-2.0,20.8,11111222 
TABS,ioos:station:wmo:42045:1,2007-12-08T23:30:00Z,26.2168,-96.4998,-2.0,20.78,11111222 
TABS,ioos:station:wmo:42045:1,2007-12-09T00:00:00Z,26.2168,-96.4998,-2.0,20.8,11111222 
TABS,ioos:station:wmo:42045:1,2007-12-09T00:30:00Z,26.2168,-96.4998,-2.0,20.79,11111222 
TABS,ioos:station:wmo:42045:1,2007-12-09T01:00:00Z,26.2168,-96.4998,-2.0,20.79,11111222 
TABS,ioos:station:wmo:42045:1,2007-12-09T01:30:00Z,26.2168,-96.4998,-2.0,20.8,11111222 
TABS,ioos:station:wmo:42045:1,2007-12-09T02:00:00Z,26.2168,-96.4998,-2.0,20.79,11111222 
TABS,ioos:station:wmo:42045:1,2007-12-09T02:30:00Z,26.2168,-96.4998,-2.0,20.8,11111222 
TABS,ioos:station:wmo:42045:1,2007-12-09T03:00:00Z,26.2168,-96.4998,-2.0,20.8,11111222 
TABS,ioos:station:wmo:42045:1,2007-12-09T03:30:00Z,26.2168,-96.4998,-2.0,20.81,11111222 
TABS,ioos:station:wmo:42045:1,2007-12-09T04:00:00Z,26.2168,-96.4998,-2.0,20.81,11111222 
TABS,ioos:station:wmo:42045:1,2007-12-09T04:30:00Z,26.2168,-96.4998,-2.0,20.82,11111222 
TABS,ioos:station:wmo:42045:1,2007-12-09T05:00:00Z,26.2168,-96.4998,-2.0,20.82,11111222 
TABS,ioos:station:wmo:42045:1,2007-12-09T05:30:00Z,26.2168,-96.4998,-2.0,20.83,11111222 
TABS,ioos:station:wmo:42045:1,2007-12-09T06:00:00Z,26.2168,-96.4998,-2.0,20.83,11111222 
TABS,ioos:station:wmo:42045:1,2007-12-09T06:30:00Z,26.2168,-96.4998,-2.0,20.84,11111222 
TABS,ioos:station:wmo:42045:1,2007-12-09T07:00:00Z,26.2168,-96.4998,-2.0,20.86,11111222 
TABS,ioos:station:wmo:42045:1,2007-12-09T07:30:00Z,26.2168,-96.4998,-2.0,20.86,11111222 
TABS,ioos:station:wmo:42045:1,2007-12-09T08:00:00Z,26.2168,-96.4998,-2.0,20.87,11111222 
TABS,ioos:station:wmo:42045:1,2007-12-09T08:30:00Z,26.2168,-96.4998,-2.0,20.88,11111222 
TABS,ioos:station:wmo:42045:1,2007-12-09T09:00:00Z,26.2168,-96.4998,-2.0,20.89,11111222 
TABS,ioos:station:wmo:42045:1,2007-12-09T09:30:00Z,26.2168,-96.4998,-2.0,20.9,11111222 
TABS,ioos:station:wmo:42045:1,2007-12-09T10:00:00Z,26.2168,-96.4998,-2.0,20.9,11111222 
TABS,ioos:station:wmo:42045:1,2007-12-09T10:30:00Z,26.2168,-96.4998,-2.0,20.91,11111222 
TABS,ioos:station:wmo:42045:1,2007-12-09T11:00:00Z,26.2168,-96.4998,-2.0,20.93,11111222 
TABS,ioos:station:wmo:42045:1,2007-12-09T11:30:00Z,26.2168,-96.4998,-2.0,20.93,11111222 
TABS,ioos:station:wmo:42045:1,2007-12-09T12:00:00Z,26.2168,-96.4998,-2.0,20.94,11111222 
TABS,ioos:station:wmo:42045:1,2007-12-09T12:30:00Z,26.2168,-96.4998,-2.0,20.94,11111222 
TABS,ioos:station:wmo:42045:1,2007-12-09T13:00:00Z,26.2168,-96.4998,-2.0,20.95,11111222 
TABS,ioos:station:wmo:42045:1,2007-12-09T13:30:00Z,26.2168,-96.4998,-2.0,20.96,11111222 
TABS,ioos:station:wmo:42045:1,2007-12-09T14:00:00Z,26.2168,-96.4998,-2.0,20.96,11111222 
TABS,ioos:station:wmo:42045:1,2007-12-09T14:30:00Z,26.2168,-96.4998,-2.0,20.97,11111222 
TABS,ioos:station:wmo:42045:1,2007-12-09T15:00:00Z,26.2168,-96.4998,-2.0,20.98,11111222 
TABS,ioos:station:wmo:42045:1,2007-12-09T15:30:00Z,26.2168,-96.4998,-2.0,21.0,11111222 
TABS,ioos:station:wmo:42045:1,2007-12-09T16:00:00Z,26.2168,-96.4998,-2.0,21.02,11111222 
TABS,ioos:station:wmo:42045:1,2007-12-09T16:30:00Z,26.2168,-96.4998,-2.0,21.03,11111222 
TABS,ioos:station:wmo:42045:1,2007-12-09T17:00:00Z,26.2168,-96.4998,-2.0,21.05,11111222 
TABS,ioos:station:wmo:42045:1,2007-12-09T17:30:00Z,26.2168,-96.4998,-2.0,21.07,11111222 
TABS,ioos:station:wmo:42045:1,2007-12-09T18:00:00Z,26.2168,-96.4998,-2.0,21.1,11111222 
TABS,ioos:station:wmo:42045:1,2007-12-09T18:30:00Z,26.2168,-96.4998,-2.0,21.12,11111222 
TABS,ioos:station:wmo:42045:1,2007-12-09T19:00:00Z,26.2168,-96.4998,-2.0,21.14,11111222 
TABS,ioos:station:wmo:42045:1,2007-12-09T19:30:00Z,26.2168,-96.4998,-2.0,21.17,11111222 
TABS,ioos:station:wmo:42045:1,2007-12-09T20:00:00Z,26.2168,-96.4998,-2.0,21.2,11111222 
TABS,ioos:station:wmo:42045:1,2007-12-09T20:30:00Z,26.2168,-96.4998,-2.0,21.21,11111222 
TABS,ioos:station:wmo:42045:1,2007-12-09T21:00:00Z,26.2168,-96.4998,-2.0,21.22,11111222 
TABS,ioos:station:wmo:42045:1,2007-12-09T21:30:00Z,26.2168,-96.4998,-2.0,21.21,11111222 
TABS,ioos:station:wmo:42045:1,2007-12-09T22:00:00Z,26.2168,-96.4998,-2.0,21.21,11111222 
TABS,ioos:station:wmo:42045:1,2007-12-09T22:30:00Z,26.2168,-96.4998,-2.0,21.19,11111222 
TABS,ioos:station:wmo:42045:1,2007-12-09T23:00:00Z,26.2168,-96.4998,-2.0,21.17,11111222 
TABS,ioos:station:wmo:42045:1,2007-12-09T23:30:00Z,26.2168,-96.4998,-2.0,21.16,11111222 
TABS,ioos:station:wmo:42045:1,2007-12-10T00:00:00Z,26.2168,-96.4998,-2.0,21.15,11111222 
TABS,ioos:station:wmo:42045:1,2007-12-10T00:30:00Z,26.2168,-96.4998,-2.0,21.14,11111222 
TABS,ioos:station:wmo:42045:1,2007-12-10T01:00:00Z,26.2168,-96.4998,-2.0,21.13,11111222 
TABS,ioos:station:wmo:42045:1,2007-12-10T01:30:00Z,26.2168,-96.4998,-2.0,21.12,11111222 
TABS,ioos:station:wmo:42045:1,2007-12-10T02:00:00Z,26.2168,-96.4998,-2.0,21.12,11111222 
TABS,ioos:station:wmo:42045:1,2007-12-10T02:30:00Z,26.2168,-96.4998,-2.0,21.12,11111222 
TABS,ioos:station:wmo:42045:1,2007-12-10T03:00:00Z,26.2168,-96.4998,-2.0,21.12,11111222 
TABS,ioos:station:wmo:42045:1,2007-12-10T03:30:00Z,26.2168,-96.4998,-2.0,21.12,11111222 
TABS,ioos:station:wmo:42045:1,2007-12-10T04:00:00Z,26.2168,-96.4998,-2.0,21.12,11111222 
TABS,ioos:station:wmo:42045:1,2007-12-10T04:30:00Z,26.2168,-96.4998,-2.0,21.14,11111222 
TABS,ioos:station:wmo:42045:1,2007-12-10T05:00:00Z,26.2168,-96.4998,-2.0,21.15,11111222 
TABS,ioos:station:wmo:42045:1,2007-12-10T05:30:00Z,26.2168,-96.4998,-2.0,21.16,11111222 
TABS,ioos:station:wmo:42045:1,2007-12-10T06:00:00Z,26.2168,-96.4998,-2.0,21.17,11111222 
TABS,ioos:station:wmo:42045:1,2007-12-10T06:30:00Z,26.2168,-96.4998,-2.0,21.18,11111222 
TABS,ioos:station:wmo:42045:1,2007-12-10T07:00:00Z,26.2168,-96.4998,-2.0,21.2,11111222 
TABS,ioos:station:wmo:42045:1,2007-12-10T07:30:00Z,26.2168,-96.4998,-2.0,21.21,11111222 
TABS,ioos:station:wmo:42045:1,2007-12-10T08:00:00Z,26.2168,-96.4998,-2.0,21.22,11111222 
TABS,ioos:station:wmo:42045:1,2007-12-10T08:30:00Z,26.2168,-96.4998,-2.0,21.23,11111222 
TABS,ioos:station:wmo:42045:1,2007-12-10T09:00:00Z,26.2168,-96.4998,-2.0,21.24,11111222 
TABS,ioos:station:wmo:42045:1,2007-12-10T09:30:00Z,26.2168,-96.4998,-2.0,21.26,11111222 
TABS,ioos:station:wmo:42045:1,2007-12-10T10:00:00Z,26.2168,-96.4998,-2.0,21.26,11111222 
TABS,ioos:station:wmo:42045:1,2007-12-10T10:30:00Z,26.2168,-96.4998,-2.0,21.27,11111222 
TABS,ioos:station:wmo:42045:1,2007-12-10T11:00:00Z,26.2168,-96.4998,-2.0,21.26,11111222 
TABS,ioos:station:wmo:42045:1,2007-12-10T11:30:00Z,26.2168,-96.4998,-2.0,21.28,11111222 
TABS,ioos:station:wmo:42045:1,2007-12-10T12:00:00Z,26.2168,-96.4998,-2.0,21.3,11111222 
TABS,ioos:station:wmo:42045:1,2007-12-10T12:30:00Z,26.2168,-96.4998,-2.0,21.32,11111222 
TABS,ioos:station:wmo:42045:1,2007-12-10T13:00:00Z,26.2168,-96.4998,-2.0,21.36,11111222 
TABS,ioos:station:wmo:42045:1,2007-12-10T13:30:00Z,26.2168,-96.4998,-2.0,21.4,11111222 
TABS,ioos:station:wmo:42045:1,2007-12-10T14:00:00Z,26.2168,-96.4998,-2.0,21.42,11111222 
TABS,ioos:station:wmo:42045:1,2007-12-10T14:30:00Z,26.2168,-96.4998,-2.0,21.43,11111222 
TABS,ioos:station:wmo:42045:1,2007-12-10T15:00:00Z,26.2168,-96.4998,-2.0,21.44,11111222 
TABS,ioos:station:wmo:42045:1,2007-12-10T15:30:00Z,26.2168,-96.4998,-2.0,21.47,11111222 
TABS,ioos:station:wmo:42045:1,2007-12-10T16:00:00Z,26.2168,-96.4998,-2.0,21.5,11111222 
TABS,ioos:station:wmo:42045:1,2007-12-10T16:30:00Z,26.2168,-96.4998,-2.0,21.58,11111222 
TABS,ioos:station:wmo:42045:1,2007-12-10T17:00:00Z,26.2168,-96.4998,-2.0,21.63,11111222 
TABS,ioos:station:wmo:42045:1,2007-12-10T17:30:00Z,26.2168,-96.4998,-2.0,21.67,11111222 
TABS,ioos:station:wmo:42045:1,2007-12-10T18:00:00Z,26.2168,-96.4998,-2.0,21.72,11111222 
TABS,ioos:station:wmo:42045:1,2007-12-10T18:30:00Z,26.2168,-96.4998,-2.0,21.76,11111222 
TABS,ioos:station:wmo:42045:1,2007-12-10T19:00:00Z,26.2168,-96.4998,-2.0,21.69,11111222 
TABS,ioos:station:wmo:42045:1,2007-12-10T19:30:00Z,26.2168,-96.4998,-2.0,21.7,11111222 
TABS,ioos:station:wmo:42045:1,2007-12-10T20:00:00Z,26.2168,-96.4998,-2.0,21.72,11111222 
TABS,ioos:station:wmo:42045:1,2007-12-10T20:30:00Z,26.2168,-96.4998,-2.0,21.73,11111222 
TABS,ioos:station:wmo:42045:1,2007-12-10T21:00:00Z,26.2168,-96.4998,-2.0,21.74,11111222 
TABS,ioos:station:wmo:42045:1,2007-12-10T21:30:00Z,26.2168,-96.4998,-2.0,21.74,11111222 
TABS,ioos:station:wmo:42045:1,2007-12-10T22:00:00Z,26.2168,-96.4998,-2.0,21.74,11111222 
TABS,ioos:station:wmo:42045:1,2007-12-10T22:30:00Z,26.2168,-96.4998,-2.0,21.74,11111222 
TABS,ioos:station:wmo:42045:1,2007-12-10T23:00:00Z,26.2168,-96.4998,-2.0,21.74,11111222 
TABS,ioos:station:wmo:42045:1,2007-12-10T23:30:00Z,26.2168,-96.4998,-2.0,21.67,11111222 
TABS,ioos:station:wmo:42045:1,2007-12-11T00:00:00Z,26.2168,-96.4998,-2.0,21.64,11111222 
TABS,ioos:station:wmo:42045:1,2007-12-11T00:30:00Z,26.2168,-96.4998,-2.0,21.62,11111222 
TABS,ioos:station:wmo:42045:1,2007-12-11T01:00:00Z,26.2168,-96.4998,-2.0,21.6,11111222 
TABS,ioos:station:wmo:42045:1,2007-12-11T01:30:00Z,26.2168,-96.4998,-2.0,21.59,11111222 
TABS,ioos:station:wmo:42045:1,2007-12-11T02:00:00Z,26.2168,-96.4998,-2.0,21.59,11111222 
TABS,ioos:station:wmo:42045:1,2007-12-11T02:30:00Z,26.2168,-96.4998,-2.0,21.6,11111222 
TABS,ioos:station:wmo:42045:1,2007-12-11T03:00:00Z,26.2168,-96.4998,-2.0,21.59,11111222 
TABS,ioos:station:wmo:42045:1,2007-12-11T03:30:00Z,26.2168,-96.4998,-2.0,21.59,11111222 
TABS,ioos:station:wmo:42045:1,2007-12-11T04:00:00Z,26.2168,-96.4998,-2.0,21.57,11111222 
TABS,ioos:station:wmo:42045:1,2007-12-11T04:30:00Z,26.2168,-96.4998,-2.0,21.56,11111222 
TABS,ioos:station:wmo:42045:1,2007-12-11T05:00:00Z,26.2168,-96.4998,-2.0,21.57,11111222 
TABS,ioos:station:wmo:42045:1,2007-12-11T05:30:00Z,26.2168,-96.4998,-2.0,21.57,11111222 
TABS,ioos:station:wmo:42045:1,2007-12-11T06:00:00Z,26.2168,-96.4998,-2.0,21.57,11111222 
TABS,ioos:station:wmo:42045:1,2007-12-11T06:30:00Z,26.2168,-96.4998,-2.0,21.57,11111222 
TABS,ioos:station:wmo:42045:1,2007-12-11T07:00:00Z,26.2168,-96.4998,-2.0,21.57,11111222 
TABS,ioos:station:wmo:42045:1,2007-12-11T07:30:00Z,26.2168,-96.4998,-2.0,21.56,11111222 
TABS,ioos:station:wmo:42045:1,2007-12-11T08:00:00Z,26.2168,-96.4998,-2.0,21.55,11111222 
TABS,ioos:station:wmo:42045:1,2007-12-11T08:30:00Z,26.2168,-96.4998,-2.0,21.54,11111222 
TABS,ioos:station:wmo:42045:1,2007-12-11T09:00:00Z,26.2168,-96.4998,-2.0,21.53,11111222 
TABS,ioos:station:wmo:42045:1,2007-12-11T09:30:00Z,26.2168,-96.4998,-2.0,21.54,11111222 
TABS,ioos:station:wmo:42045:1,2007-12-11T10:00:00Z,26.2168,-96.4998,-2.0,21.53,11111222 
TABS,ioos:station:wmo:42045:1,2007-12-11T10:30:00Z,26.2168,-96.4998,-2.0,21.52,11111222 
TABS,ioos:station:wmo:42045:1,2007-12-11T11:00:00Z,26.2168,-96.4998,-2.0,21.51,11111222 
TABS,ioos:station:wmo:42045:1,2007-12-11T11:30:00Z,26.2168,-96.4998,-2.0,21.51,11111222 
TABS,ioos:station:wmo:42045:1,2007-12-11T12:00:00Z,26.2168,-96.4998,-2.0,21.5,11111222 
TABS,ioos:station:wmo:42045:1,2007-12-11T12:30:00Z,26.2168,-96.4998,-2.0,21.51,11111222 
TABS,ioos:station:wmo:42045:1,2007-12-11T13:00:00Z,26.2168,-96.4998,-2.0,21.5,11111222 
TABS,ioos:station:wmo:42045:1,2007-12-11T13:30:00Z,26.2168,-96.4998,-2.0,21.5,11111222 
TABS,ioos:station:wmo:42045:1,2007-12-11T14:00:00Z,26.2168,-96.4998,-2.0,21.51,11111222 